Regional Weather Roundup
Issued by NWS

Home | Current Version | Previous Version | Text Only | Print | Product List | Glossary Off
Versions: 1 2 3 4 5 6 7 8 9 10 11 12 13 14 15 16 17 18 19 20 21 22 23 24 25 26 27 28 29 30 31 32 33 34 35 36 37 38 39 40 41 42 43 44 45 46 47 48 49 50

000
ASUS43 KOAX 211010
RWRNE

WEATHER ROUNDUP FOR NEBRASKA
NATIONAL WEATHER SERVICE OMAHA NE
400 AM CST WED FEB 21 2018

NOTES: SATELLITE DATA IS BEING USED TO AUGMENT CLOUD COVER ABOVE
       12000 FEET.
       "FAIR" INDICATES FEW OR NO CLOUDS BELOW 12,000 FEET WITH NO
       SIGNIFICANT WEATHER AND/OR OBSTRUCTIONS TO VISIBILITY.


NEZ001>004-019>022-054>056-211100-
NEBRASKA PANHANDLE

CITY           SKY/WX    TMP DP  RH WIND       PRES   REMARKS
SCOTTSBLUFF    PTCLDY    -8 -13  78 CALM      30.25F
ALLIANCE       PTCLDY   -25 -29  81 NE3       30.25F
CHADRON        PTCLDY   -16 -23  70 SW6       30.31F WCI -31
GORDON         FAIR     -10 -17  68 NW6       30.29S WCI -23
KIMBALL        PTCLDY    -8 -13  78 W12       30.20F WCI -28
SIDNEY         PTCLDY    -3  -9  75 NW9       30.23F WCI -19
$$

NEZ057>060-069>072-079>082-211100-
SOUTHWEST NEBRASKA

CITY           SKY/WX    TMP DP  RH WIND       PRES   REMARKS
NORTH PLATTE   PTCLDY    -5 -11  75 CALM      30.39F
IMPERIAL       CLEAR      4  -2  76 W5        30.34F WCI  -5
LEXINGTON      PTCLDY     5   0  78 W3        30.44S
MCCOOK         PTCLDY     2  -2  83 CALM      30.42F
OGALLALA       PTCLDY    -2  -7  80 SW8       30.34F WCI -17
$$

NEZ005>010-023>029-035>040-094-211100-
NORTH CENTRAL NEBRASKA

CITY           SKY/WX    TMP DP  RH WIND       PRES   REMARKS
VALENTINE      PTCLDY   -11 -18  71 CALM      30.39F
AINSWORTH      PTCLDY    -4 -10  78 SW5       30.39F WCI -15
BROKEN BOW     PTCLDY     4  -7  60 NW6       30.40F WCI  -7
O`NEILL        PTCLDY    -3  -8  77 NW9       30.45S WCI -19
ORD            PTCLDY    -2  -8  76 NW6       30.45F WCI -14
THEDFORD       CLEAR     -8 -13  80 CALM      30.37F
$$

NEZ041-046>049-061>064-073>077-083>087-211100-
SOUTH CENTRAL NEBRASKA

CITY           SKY/WX    TMP DP  RH WIND       PRES   REMARKS
GRAND ISLAND   CLEAR      4  -1  80 NW6       30.49S WCI  -7
AURORA         CLEAR      1  -4  79 NW6       30.49S WCI -10
HASTINGS       CLOUDY     3  -2  79 CALM      30.48S
HEBRON         PTCLDY     9   3  77 CALM      30.54R
HOLDREGE       CLOUDY     4   0  84 NW3       30.44F
KEARNEY        CLEAR      3  -2  79 N6        30.46F WCI  -8
YORK           CLEAR      5   1  85 N6        30.51R WCI  -6
$$

NEZ011>018-030>034-042>045-211100-
NORTHEAST NEBRASKA

CITY           SKY/WX    TMP DP  RH WIND       PRES   REMARKS
NORFOLK        CLEAR      1  -3  83 NW5       30.50S WCI  -9
ALBION         PTCLDY     1  -5  77 NW6       30.49S WCI -11
BLAIR          CLEAR      9   3  79 NW6       30.52R WCI  -1
COLUMBUS       CLEAR      4   0  83 W5        30.54R WCI  -5
FREMONT        CLEAR      7   2  80 NW7       30.55R WCI  -4
TEKAMAH        CLEAR      7   2  80 N6        30.56R WCI  -3
WAYNE          CLEAR      3  -2  78 NW6       30.52R WCI  -8
$$

NEZ050>053-065>068-078-088>093-211100-
SOUTHEAST NEBRASKA

CITY           SKY/WX    TMP DP  RH WIND       PRES   REMARKS
LINCOLN        CLEAR      7   2  80 N7        30.55R WCI  -5
OMAHA EPPLEY   CLEAR      9   4  80 N7        30.54R WCI  -2
BEATRICE       CLEAR     10   6  82 N5        30.54R WCI   2
FALLS CITY     CLEAR     12   6  77 N9        30.54R WCI   0
NEBRASKA CITY  CLEAR     11   7  85 N9        30.52R WCI  -2
PLATTSMOUTH    CLEAR     10   6  82 NW12      30.51R WCI  -5
$$

NEZ044-045-051>053-067-211100-
OMAHA AREA

CITY           SKY/WX    TMP DP  RH WIND       PRES   REMARKS
OMAHA EPPLEY   CLEAR      9   4  80 N7        30.54R WCI  -2
BLAIR          CLEAR      9   3  79 NW6       30.52R WCI  -1
FREMONT        CLEAR      7   2  80 NW7       30.55R WCI  -4
MILLARD        CLEAR     11   4  73 NW6       30.55R WCI   2
OFFUTT AFB     CLEAR     10   3  72 N7        30.53R WCI  -1
PLATTSMOUTH    CLEAR     10   6  82 NW12      30.51R WCI  -5
WAHOO          FAIR       8   3  78 NW8       30.54S WCI  -4
$$



USA.gov is the U.S. government's official web portal to all federal, state and local government web resources and services.